Terug naar catalogus

STARLINK-37916

ActiefCommunicatieSSO
NORAD 69565·PAYLOAD·🇺🇸 United States

Gelanceerd Jun 15, 2026 vanaf Vandenberg Space Force Base

Loading…

Volgende Passages (komende 24 uur)

TLE

VersSource: CelesTrak SupGP

Epoch: Sep 15, 2026, 04:03 UTC

1 69565C 26135V   26258.16923611 -.00062175  00000+0 -19304-2 0  2589
2 69565  97.2838 285.9850 0000979  92.3993  17.8349 15.33465071    15

Volg STARLINK-37916 in realtime met AllMySat

Download on the App Store